Location: Ahausen
(50.4985°N, 8.2722°E)
Time: 04:29:33
(UTC+00:00)

YUBILEINY - Pass Details

Date: 02 July 2022
Orbit: 1478 x 1509 km, 82.5° (Epoch: 17 August)

Event Time Altitude Azimuth Distance (km) Brightness Sun altitude
Rises 01:06:20 0° 348° (NNW) 4,658 ? -13.5°
Reaches altitude 10° 01:10:35 10° 7° (N) 3,670 ? -13.2°
Maximum altitude 01:16:21 19° 48° (NE) 3,036 ? -12.9°
Drops below altitude 10° 01:22:04 10° 90° (E) 3,645 ? -12.5°
Sets 01:26:13 0° 108° (ESE) 4,615 ? -12.2°
